Harrison, AR

2:41 AM CDT on May 28, 2018 (GMT -0500)
Boone County

Weather History for KHRO - December, 2012

Change the Weather History Date:

Thursday, December 27, 2012

  Actual Average Record
Temperature  
Mean Temperature 29 °F 36 °F  
Max Temperature 38 °F 46 °F 75 °F (1971)
Min Temperature 19 °F 26 °F 5 °F (1904)
Degree Days  
Heating Degree Days 36 29  
Month to date heating degree days 522 719  
Since 1 July heating degree days 1274 1483  
Cooling Degree Days 0 0  
Month to date cooling degree days 8 0  
Year to date cooling degree days 1969 1416  
Moisture  
Dew Point 21 °F    
Average Humidity 73    
Maximum Humidity 91    
Minimum Humidity 54    
Precipitation  
Precipitation 0.00 in 0.09 in 4.38 in (2015)
Month to date precipitation 1.34 2.84  
Year to date precipitation 28.79 43.78  
Snow  
Snow 0.00 in 0.10 in 2.00 in (1935)
Month to date snowfall 0.3 0.9  
Since 1 July snowfall 0.3 1.4  
Snow Depth 0.00 in    
Sea Level Pressure  
Sea Level Pressure 30.07 in    
Wind  
Wind Speed 10 mph (SE)    
Max Wind Speed 21 mph    
Max Gust Speed 25 mph    
Visibility 10 miles    
Events      
T = Trace of Precipitation, MM = Missing Value Source: NWS Daily Summary

Daily Weather History Graph

Daily Weather History Graph

Search for Another Location

Airport or City:

Astronomy

Dec. 27, 2012 Rise Set
Actual Time 7:22 AM CST 5:05 PM CST
Civil Twilight 6:54 AM CST 5:33 PM CST
Nautical Twilight 6:21 AM CST 6:06 PM CST
Astronomical Twilight 5:50 AM CST 6:37 PM CST
Moon 4:48 PM CST (12/27) 6:35 AM CST (12/27)
Length of Visible Light 10h 39m
Length of Day
9h 42m
Full, 100% of the Moon is Illuminated
Dec 27
Full
Dec 28
Full
Jan 4
Last Quarter
Jan 11
New
Jan 18
First Quarter

Hourly Weather History & Observations

Time (CST) Temp. Windchill Dew Point Humidity Pressure Visibility Wind Dir Wind Speed Gust Speed Precip Events Conditions
12:53 AM 21.0 °F - 17.1 °F 85% 30.14 in 10.0 mi Calm Calm - N/A   Clear
1:53 AM 19.9 °F 13.4 °F 17.1 °F 89% 30.15 in 10.0 mi ESE 4.6 mph - N/A   Clear
2:53 AM 19.0 °F 13.9 °F 17.1 °F 92% 30.15 in 10.0 mi SE 3.5 mph - N/A   Clear
3:53 AM 19.0 °F 13.9 °F 16.0 °F 88% 30.14 in 9.0 mi ESE 3.5 mph - N/A   Clear
4:53 AM 19.0 °F 11.1 °F 17.1 °F 92% 30.14 in 9.0 mi SE 5.8 mph - N/A   Clear
5:53 AM 19.9 °F 11.1 °F 17.1 °F 89% 30.14 in 10.0 mi SE 6.9 mph - N/A   Clear
6:53 AM 21.0 °F 10.6 °F 18.0 °F 88% 30.13 in 10.0 mi SE 9.2 mph - N/A   Clear
7:53 AM 21.9 °F 13.4 °F 18.0 °F 85% 30.14 in 10.0 mi SE 6.9 mph - N/A   Clear
8:53 AM 25.0 °F 16.3 °F 21.0 °F 85% 30.16 in 10.0 mi SE 8.1 mph - N/A   Clear
9:53 AM 30.0 °F 19.5 °F 21.9 °F 72% 30.14 in 10.0 mi SE 13.8 mph - N/A   Clear
10:53 AM 33.1 °F 21.9 °F 21.9 °F 64% 30.12 in 10.0 mi SSE 18.4 mph - N/A   Clear
11:53 AM 35.1 °F 26.4 °F 21.9 °F 59% 30.09 in 10.0 mi SSE 12.7 mph - N/A   Clear
12:53 PM 36.0 °F 26.3 °F 21.9 °F 57% 30.04 in 10.0 mi South 16.1 mph 19.6 mph N/A   Clear
1:53 PM 37.4 °F 29.3 °F 23.0 °F 56% 29.98 in 10.0 mi SSE 12.7 mph - N/A   Clear
2:53 PM 37.0 °F 28.1 °F 23.0 °F 57% 30.02 in 10.0 mi SSE 15.0 mph - N/A   Clear
3:53 PM 36.0 °F 26.3 °F 21.9 °F 57% 30.00 in 10.0 mi SSE 16.1 mph - N/A   Clear
4:53 PM 35.1 °F 26.4 °F 21.9 °F 59% 30.00 in 10.0 mi SE 12.7 mph - N/A   Clear
5:53 PM 33.1 °F 26.1 °F 24.1 °F 70% 30.01 in 10.0 mi SE 8.1 mph - N/A   Clear
6:53 PM 32.0 °F 23.6 °F 24.1 °F 73% 30.01 in 10.0 mi SE 10.4 mph - N/A   Clear
7:53 PM 30.2 °F 22.6 °F 24.8 °F 80% 29.97 in 10.0 mi ESE 8.1 mph - N/A   Clear
8:53 PM 30.0 °F 21.7 °F 24.1 °F 79% 30.00 in 10.0 mi SE 9.2 mph - N/A   Clear
9:53 PM 28.9 °F 20.4 °F 24.1 °F 82% 30.01 in 10.0 mi SE 9.2 mph - N/A   Mostly Cloudy
10:53 PM 28.9 °F 18.6 °F 25.0 °F 85% 30.01 in 10.0 mi SE 12.7 mph - N/A   Overcast
11:53 PM 30.0 °F 20.0 °F 25.0 °F 82% 30.01 in 10.0 mi SSE 12.7 mph - N/A   Overcast